Weather History for KLWD - December, 2012

Change the Weather History Date:

Tuesday, December 18, 2012

  Actual Average Record
Temperature  
Mean Temperature 37 °F 26 °F  
Max Temperature 46 °F 34 °F 61 °F (1976)
Min Temperature 27 °F 18 °F -16 °F (1983)
Degree Days  
Heating Degree Days 28 39  
Month to date heating degree days 471 659  
Since 1 July heating degree days 1667 1907  
Cooling Degree Days 0 0  
Month to date cooling degree days 0 0  
Year to date cooling degree days 1312 946  
Moisture  
Dew Point 29 °F    
Average Humidity 79    
Maximum Humidity 100    
Minimum Humidity 58    
Precipitation  
Precipitation 0.00 in 0.05 in 1.11 in (1968)
Month to date precipitation 0.51 0.92  
Sea Level Pressure  
Sea Level Pressure 29.69 in    
Wind  
Wind Speed 12 mph (SW)    
Max Wind Speed 31 mph    
Max Gust Speed 37 mph    
Visibility 6 miles    
Events Fog    
T = Trace of Precipitation, MM = Missing Value Source: NWS Daily Summary

Daily Weather History Graph

Daily Weather History Graph

Search for Another Location

Airport or City:

Trip Planner

Search our weather history database for the weather conditions in past years. The results will help you decide how hot, cold, wet, or windy it might be!

Date:

Astronomy

Dec. 18, 2012 Rise Set
Actual Time 7:34 AM CST 4:50 PM CST
Civil Twilight 7:03 AM CST 5:21 PM CST
Nautical Twilight 6:29 AM CST 5:55 PM CST
Astronomical Twilight 5:55 AM CST 6:29 PM CST
Moon 11:13 AM CST (12/18) 11:19 PM CST (12/18)
Length of Visible Light 10h 17m
Length of Day
9h 16m
Waxing Crescent, 35% of the Moon is Illuminated
Dec 18
Waxing Crescent
Dec 19
First Quarter
Dec 28
Full
Jan 4
Last Quarter
Jan 11
New

Hourly Weather History & Observations

Time (CST) Temp. Windchill Dew Point Humidity Pressure Visibility Wind Dir Wind Speed Gust Speed Precip Events Conditions
12:12 AM 30.2 °F 25.4 °F 28.4 °F 93% 29.68 in 3.0 mi SE 4.6 mph - N/A   Overcast
12:31 AM 30.2 °F 23.4 °F 28.4 °F 93% 29.66 in 2.5 mi SE 6.9 mph - N/A   Overcast
12:53 AM 30.9 °F 25.2 °F 30.0 °F 96% 29.68 in 1.8 mi ESE 5.8 mph - N/A   Overcast
1:14 AM 30.2 °F 23.4 °F 30.2 °F 100% 29.65 in 0.5 mi ESE 6.9 mph - N/A Fog Light Freezing Fog
1:42 AM 30.2 °F 25.4 °F 30.2 °F 100% 29.63 in 1.5 mi ESE 4.6 mph - N/A   Overcast
1:53 AM 30.9 °F 25.2 °F 30.0 °F 96% 29.66 in 2.0 mi ESE 5.8 mph - N/A   Mostly Cloudy
2:03 AM 30.2 °F 23.4 °F 30.2 °F 100% 29.62 in 2.5 mi ESE 6.9 mph - N/A   Scattered Clouds
2:13 AM 30.2 °F 23.4 °F 30.2 °F 100% 29.61 in 3.0 mi ESE 6.9 mph - N/A   Clear
2:53 AM 32.0 °F 24.2 °F 28.9 °F 88% 29.61 in 4.0 mi SSE 9.2 mph - N/A   Clear
3:53 AM 33.1 °F 26.1 °F 30.0 °F 89% 29.58 in 6.0 mi SSE 8.1 mph - N/A   Clear
4:53 AM 32.0 °F 24.2 °F 28.9 °F 88% 29.57 in 5.0 mi South 9.2 mph - N/A   Partly Cloudy
5:53 AM 32.0 °F 21.6 °F 30.0 °F 92% 29.53 in 5.0 mi South 15.0 mph - N/A   Clear
6:53 AM 35.1 °F 25.5 °F 32.0 °F 89% 29.54 in 8.0 mi SSW 15.0 mph - N/A   Clear
7:53 AM 35.1 °F 25.5 °F 30.9 °F 85% 29.56 in 9.0 mi SW 15.0 mph - N/A   Clear
8:53 AM 37.9 °F 28.9 °F 32.0 °F 79% 29.55 in 10.0 mi SW 16.1 mph - N/A   Clear
9:53 AM 43.0 °F 33.8 °F 30.9 °F 62% 29.57 in 10.0 mi WSW 23.0 mph 31.1 mph N/A   Clear
10:53 AM 46.0 °F 37.2 °F 32.0 °F 58% 29.60 in 10.0 mi West 26.5 mph 36.8 mph N/A   Clear
11:53 AM 42.1 °F 31.3 °F 30.0 °F 62% 29.64 in 10.0 mi WNW 29.9 mph 36.8 mph N/A   Clear
12:21 PM 37.4 °F 26.1 °F 28.4 °F 70% 29.64 in 10.0 mi WNW 24.2 mph 31.1 mph N/A   Mostly Cloudy
12:53 PM 36.0 °F 25.0 °F 28.0 °F 73% 29.68 in 10.0 mi WNW 20.7 mph 27.6 mph N/A   Overcast
1:53 PM 36.0 °F 25.3 °F 28.9 °F 76% 29.71 in 9.0 mi WNW 19.6 mph - N/A   Overcast
2:53 PM 36.0 °F 26.3 °F 28.0 °F 73% 29.75 in 9.0 mi WNW 16.1 mph 23.0 mph N/A   Overcast
3:53 PM 36.0 °F 26.3 °F 28.0 °F 73% 29.77 in 9.0 mi WNW 16.1 mph - N/A   Mostly Cloudy
4:53 PM 34.0 °F 25.0 °F 27.0 °F 75% 29.80 in 8.0 mi NW 12.7 mph - N/A   Scattered Clouds
5:53 PM 32.0 °F 24.2 °F 27.0 °F 82% 29.82 in 8.0 mi NNW 9.2 mph - N/A   Clear
6:53 PM 30.0 °F 26.5 °F 26.1 °F 85% 29.86 in 7.0 mi NW 3.5 mph - N/A   Clear
7:53 PM 28.9 °F 25.2 °F 26.1 °F 89% 29.88 in 6.0 mi NW 3.5 mph - N/A   Clear
8:53 PM 28.0 °F 20.8 °F 25.0 °F 88% 29.88 in 5.0 mi North 6.9 mph - N/A   Clear
9:53 PM 28.0 °F 22.8 °F 25.0 °F 88% 29.87 in 5.0 mi NNE 4.6 mph - N/A   Clear
10:53 PM 30.0 °F - 27.0 °F 88% 29.90 in 6.0 mi Calm Calm - N/A   Clear
11:53 PM 28.9 °F - 26.1 °F 89% 29.91 in 6.0 mi Calm Calm - N/A   Clear